Location: Ereda
(41.9683°N, 44.6311°E)
Time: 06:13:57
(UTC+00:00)

Daily predictions for brighter satellites

Satellite Brightness Start Highest point End
(mag) Time Altitude Azimuth Time Altitude Azimuth Time Altitude Azimuth
IRS-1A Rocket 4.5 16:21:44 10° SSE 16:27:20 61° ENE 16:33:03 10° N
NOSS 3-2 (C) 4.1 16:24:22 10° S 16:29:05 29° ESE 16:34:14 10° NE
Cosmos 1818 3.9 16:23:50 10° NW 16:29:17 71° WSW 16:34:40 10° SSE
ARGOS 3.2 16:23:58 10° SSE 16:29:21 86° ENE 16:34:45 10° NNW
Meteor 1-10 Rocket 4.3 16:24:57 10° N 16:30:42 77° E 16:36:32 10° SSE
Cosmos 1184 Rocket 4.4 16:28:30 10° SE 16:30:46 18° E 16:33:04 10° NE
CZ-2C R/B 2.8 16:28:16 10° NNE 16:33:19 48° E 16:38:23 10° S
Cosmos 2360 4.3 16:32:00 10° NNW 16:37:44 69° ENE 16:43:25 10° SSE
SL-16 R/B 4.0 16:34:30 10° N 16:38:11 17° NE 16:41:51 10° E
Cosmos 1707 Rocket 3.8 16:36:21 10° N 16:40:33 48° ENE 16:44:44 10° SSE
Cosmos 2082 Rocket 2.2 16:39:25 10° SSW 16:45:07 82° ESE 16:50:49 10° NNE
MetOp-A 4.2 16:42:03 10° SSE 16:47:18 62° ENE 16:52:36 10° N
SL-4 R/B 4.0 16:46:04 10° WNW 16:49:36 27° NNW 16:52:55 10° NE
Cosmos 2369 3.9 16:45:19 10° NNW 16:51:05 81° WSW 16:56:47 10° SSE
Sich 1 3.1 16:47:50 10° S 16:52:16 86° W 16:56:44 10° N
ATLAS 3B R/B 3.9 16:50:56 10° SE 16:54:45 16° ESE 16:58:34 10° ENE
Cosmos 2322 Rocket 3.9 16:51:43 10° N 16:55:43 19° NE 16:59:37 10° E
SL-27 R/B 4.4 16:57:32 11° E 16:57:32 11° E 16:58:11 10° ENE
H-2A R/B 3.4 16:52:23 10° SSW 16:57:08 39° W 17:01:49 10° NNW
Cosmos 2278 3.7 16:51:40 10° NNW 16:57:25 77° ENE 17:03:05 10° SSE
ATLAS 5 CENTAUR R/B 4.3 16:54:03 10° WNW 16:59:06 28° WSW 17:04:41 10° S
MONITOR-E 3.3 17:00:19 15° SSE 17:02:09 70° ENE 17:04:30 10° N
Cosmos 676 Rocket 4.0 16:58:34 10° SSW 17:03:53 81° ESE 17:09:15 10° NNE
MOS 1 4.4 16:58:31 10° S 17:04:10 79° WSW 17:09:52 10° NNW
Meteor 2-20 4.5 16:58:21 10° N 17:04:30 68° E 17:10:35 10° SSE
Cosmos 2360 Rocket 4.3 17:02:02 10° NNE 17:04:37 13° NE 17:07:11 10° ENE
Cosmos 1934 Rocket 4.0 16:59:42 10° S 17:05:59 66° E 17:12:18 10° NNE
USA 186 3.4 17:06:14 10° SSW 17:08:04 22° W 17:09:55 10° NW
Cosmos 1862 Rocket 3.9 17:04:03 10° N 17:08:20 46° ENE 17:11:38 16° SSE
Meteor 1-4 Rocket 2.3 17:07:01 10° N 17:10:29 78° E 17:13:26 13° SSE
Cosmos 1238 Rocket 3.1 17:12:52 25° ESE 17:13:25 26° E 17:15:58 10° NNE
Cosmos 1980 Rocket 2.2 17:08:46 10° NNW 17:14:28 87° WSW 17:19:32 13° SSE
Genesis I 3.9 17:13:02 10° NW 17:16:48 49° WSW 17:19:53 14° S
USA 238 DEB 3.7 17:11:54 10° SW 17:18:30 82° NW 17:25:24 10° NE
USA 238 3.7 17:12:00 10° SW 17:18:36 83° NW 17:25:30 10° NE
Lacrosse 5 2.3 17:15:20 10° NW 17:20:17 50° NE 17:23:28 21° ESE
Intercosmos 25 4.0 17:17:25 10° NNW 17:20:46 44° W 17:23:47 10° SSW
CZ-2C R/B 3.6 17:16:46 10° NNE 17:21:22 81° ESE 17:25:49 10° S
CENTAUR R/B 2.4 17:16:39 10° SSW 17:22:20 67° ESE 17:29:04 10° NE
Resurs 01 Rocket 1.7 17:19:47 19° SSE 17:22:53 60° ENE 17:27:15 10° N
USA 276 3.9 17:20:52 10° NW 17:23:36 26° NNE 17:25:28 16° ENE
X-37B 1.0 17:21:12 10° WNW 17:24:19 56° N 17:25:51 26° E
SPOT 3 Rocket 3.5 17:19:41 11° SSE 17:24:40 89° ENE 17:29:53 10° NNW
Cosmos 1697 Rocket 4.0 17:21:33 10° NW 17:26:39 36° WSW 17:31:43 10° S
Cosmos 1602 4.1 17:27:29 26° SE 17:29:11 42° E 17:32:55 10° NNE
Meteor 1-20 Rocket 4.2 17:24:42 10° S 17:30:29 72° E 17:36:20 10° NNE
GP-B 3.2 17:26:52 10° NNE 17:31:14 53° E 17:33:42 24° SSE
Cosmos 1933 Rocket 3.7 17:28:49 20° SSE 17:31:41 51° E 17:36:00 10° NNE
Spot 2 Rocket 4.2 17:30:53 25° ESE 17:33:14 38° ENE 17:37:55 10° N
Cosmos 1741 Rocket 4.0 17:34:43 10° S 17:39:52 62° ESE 17:45:05 10° NNE
Cosmos 405 Rocket 2.5 17:39:54 24° S 17:42:03 76° E 17:45:49 10° NNE
Okean 1-7 3.6 17:43:30 10° N 17:47:30 37° ENE 17:48:08 35° E
Cosmos 2333 Rocket 4.4 17:46:10 10° NNE 17:48:34 12° NE 17:50:58 10° ENE
Cosmos 1515 4.2 17:45:56 10° N 17:49:34 39° ENE 17:49:46 39° E
Cosmos 1763 Rocket 3.5 17:45:43 10° NNW 17:51:01 66° ENE 17:53:10 35° SE
Cosmos 1437 Rocket 2.8 17:52:37 10° N 17:56:19 51° ENE 17:56:31 50° E
Cosmos 1703 Rocket 3.7 17:53:00 10° N 17:57:16 54° E 17:58:00 47° ESE
Cosmos 2084 Rocket 4.0 17:54:30 10° SW 17:58:37 58° NW 18:02:51 10° NNE
OBJECT-B 3.1 17:56:29 11° SW 17:58:57 22° W 18:01:34 10° NW
Landsat 7 3.8 17:57:34 41° SE 17:59:06 67° ENE 18:03:50 10° N
SPOT 5 3.7 17:59:11 27° ENE 17:59:28 28° ENE 18:03:13 10° N
H-2A R/B 3.4 17:55:30 10° NNE 17:59:39 88° WNW 18:01:50 27° SSW
MetOp-B 4.1 17:59:31 31° SSE 18:02:13 87° WSW 18:07:37 10° NNW
USA 245 4.5 17:59:45 30° SSE 18:03:08 78° ENE 18:09:11 10° N
Cosmos 1605 Rocket 4.2 18:00:09 10° SSW 18:06:13 67° W 18:12:17 10° N
Cosmos 921 Rocket 3.9 18:02:30 10° NNW 18:06:28 42° WSW 18:08:16 27° SSW
Cosmos 2100 Rocket 4.1 18:07:33 39° SE 18:09:27 52° E 18:15:22 10° NNE
USA 267 3.1 18:03:53 10° NE 18:10:26 72° SE 18:16:57 10° SW
Meteor 1-19 Rocket 4.1 18:05:01 10° N 18:10:30 86° E 18:12:35 40° SSE
Cosmos 2173 Rocket 4.1 18:12:01 41° SE 18:13:39 52° E 18:19:33 10° NNE
Cosmos 2219 Rocket 4.0 18:15:36 10° N 18:19:24 18° NE 18:20:59 16° ENE
Meteor 2-4 Rocket 3.7 18:13:55 10° N 18:19:27 62° ENE 18:20:30 52° SE
NOSS 3-2 (C) 4.3 18:14:02 10° WSW 18:19:33 49° NW 18:25:52 10° NNE
Okean 1 3.8 18:15:42 10° NNW 18:19:41 57° W 18:20:28 47° SW
Lacrosse 4 Rocket 3.6 18:25:08 16° NE 18:25:08 16° NE 18:26:02 10° NE
SL-16 R/B 2.1 18:17:19 10° NNW 18:23:02 83° WSW 18:24:36 50° SSE
Cosmos 540 Rocket 3.4 18:18:59 10° NNW 18:24:08 65° ENE 18:24:50 58° ESE
Cosmos 1459 Rocket 4.0 18:24:48 46° SSE 18:26:40 66° E 18:32:58 10° NNE
SL-4 R/B 4.2 18:27:20 10° NW 18:30:08 19° N 18:31:51 14° NE
Cosmos 2242 Rocket 4.4 18:26:15 10° NNW 18:30:27 45° W 18:31:38 36° SW
SL-27 R/B 3.9 18:31:00 30° W 18:31:38 33° WNW 18:34:40 10° N
Cosmos 2016 Rocket 4.2 18:33:08 49° ESE 18:33:51 51° E 18:40:00 10° NNE
Cosmos 1833 4.3 18:34:22 55° E 18:34:22 55° E 18:39:39 10° NNE
ERS-1 Rocket 2.8 18:36:14 73° SE 18:36:40 81° ENE 18:41:43 10° NNW
Meteor 1-13 Rocket 4.3 18:32:48 10° N 18:38:13 55° ENE 18:38:29 54° E
Cosmos 2322 Rocket 2.2 18:34:41 10° NNW 18:40:24 74° WSW 18:41:25 59° S
Cosmos 967 Rocket 4.4 18:35:03 10° NNW 18:41:27 83° ENE 18:42:40 60° SE
SPOT 1/Viking Rocket 3.9 18:42:54 48° SSW 18:44:01 59° W 18:49:12 10° NNW
USA 234 3.8 18:41:40 31° E 18:44:25 49° NNE 18:50:39 10° NW
ATLAS 3B R/B 2.5 18:37:53 10° SSW 18:44:30 88° WNW 18:51:10 10° NE
BREEZE-M TANK 4.1 18:37:52 10° SW 18:45:06 38° SSW 18:45:06 38° SSW
Terra 2.0 18:49:02 63° NE 18:49:02 63° NE 18:53:22 10° N
Cosmos 841 Rocket 3.5 18:44:15 10° NNW 18:49:29 73° WSW 18:49:50 70° SW
Cosmos 2360 Rocket 2.1 18:44:00 10° NNW 18:49:41 72° ENE 18:50:02 69° E
Cosmos 1500 4.3 18:50:44 42° NW 18:50:44 42° NW 18:53:39 10° N
Cosmos 2221 Rocket 4.2 18:47:07 10° N 18:50:40 50° NNE 18:50:40 50° NNE
Cosmos 2237 4.0 18:47:53 10° NNW 18:53:37 85° ENE 18:53:57 79° SE
Okean 3 4.1 18:52:12 10° N 18:55:36 54° N 18:55:36 54° N
Iridium 4 Rocket 3.7 18:58:58 50° N 18:58:58 50° N 19:02:05 10° N
Resurs 01 Rocket 4.3 18:57:48 10° WSW 18:59:45 13° W 19:01:41 10° WNW
X-37B 3.8 18:57:54 10° W 18:58:07 11° W 18:58:07 11° W
Cosmos 44 4.0 18:57:33 10° NW 19:02:11 47° WSW 19:02:11 47° WSW
CARTOSAT-1 4.4 19:03:24 47° WNW 19:03:24 47° WNW 19:07:06 10° NNW
Lacrosse 5 3.2 18:58:39 10° WNW 19:02:39 30° WSW 19:02:39 30° WSW
Cosmos 2233 Rocket 4.5 19:04:59 45° ENE 19:04:59 45° ENE 19:10:27 10° NNE
Cosmos 2061 Rocket 3.8 19:05:49 74° S 19:06:27 90° E 19:12:41 10° N
Cosmos 1802 Rocket 4.2 19:10:10 53° SW 19:11:38 70° W 19:17:58 10° N
CENTAUR R/B 4.4 19:08:18 10° W 19:13:38 29° NW 19:19:46 10° NNE
COSMOS 2428 3.5 19:10:33 10° N 19:15:48 39° NE 19:15:48 39° NE
Cosmos 2237 Rocket 4.1 19:16:24 10° N 19:20:17 19° NE 19:20:58 18° ENE
Cosmos 1816 Rocket 4.3 19:18:09 10° N 19:24:23 89° WNW 19:24:23 89° WNW
Cosmos 44 Rocket 4.4 19:21:33 10° NNW 19:25:33 40° NNE 19:25:33 40° NNE
Cosmos 2333 Rocket 2.5 19:28:15 10° NNW 19:33:20 61° NNE 19:33:20 61° NNE
Cosmos 1066 Rocket 4.5 19:34:46 10° NNW 19:39:35 63° NW 19:39:35 63° NW
USA 267 4.4 19:47:08 10° NE 19:53:11 41° NNW 19:59:13 10° W
Tsikada Rocket 4.3 19:47:58 10° NNW 19:53:56 59° W 19:53:56 59° W
Cosmos 2227 Rocket 4.3 19:58:23 15° ENE 19:58:23 15° ENE 19:59:39 10° NE
Cosmos 968 Rocket 4.4 19:57:27 44° NNW 19:57:27 44° NNW 20:01:12 10° NNE
Lacrosse 4 Rocket 3.7 20:01:23 22° NW 20:01:23 22° NW 20:04:14 10° N
Cosmos 2219 Rocket 2.8 19:58:20 10° NNW 20:02:41 54° NW 20:02:41 54° NW
BREEZE-M DEB (TANK) 4.4 20:06:05 10° WNW 20:10:57 73° NNE 20:33:01 10° ESE
Terra 4.4 20:27:56 12° WNW 20:27:56 12° WNW 20:29:02 10° WNW
USA 234 3.9 20:29:00 45° W 20:29:00 45° W 20:33:46 10° NW
Cosmos 2360 Rocket 4.4 20:29:42 10° WNW 20:31:48 15° W 20:31:48 15° W
SL-16 R/B 3.8 20:31:10 10° N 20:35:50 26° NE 20:35:50 26° NE
Cosmos 2297 Rocket 3.4 20:50:25 38° NNE 20:50:25 38° NNE 20:53:48 10° NNE
COSMOS 2428 4.5 20:55:03 10° NW 20:57:48 24° WNW 20:57:48 24° WNW
Cosmos 2219 4.2 21:04:37 43° N 21:04:37 43° N 21:08:25 10° NNE
Cosmos 2237 Rocket 3.3 20:59:21 10° NNW 21:02:46 38° NW 21:02:46 38° NW
SJ 16-02 4.0 21:10:39 15° NE 21:10:39 15° NE 21:11:36 10° NE
Cosmos 2333 Rocket 4.5 21:13:57 10° WNW 21:15:19 14° WNW 21:15:19 14° WNW
CZ-2D R/B 4.4 21:21:27 10° NE 21:23:46 16° ENE 21:23:46 16° ENE
Cosmos 1092 Rocket 4.5 21:27:18 10° N 21:32:06 56° NNW 21:32:06 56° NNW
Cosmos 2227 Rocket 3.2 21:40:11 42° NNW 21:40:11 42° NNW 21:44:25 10° NNE
Resurs 1-4 Rocket 3.7 21:51:03 10° NE 21:54:28 27° ENE 21:54:28 27° ENE
Meteor 2-5 Rocket 4.5 21:50:18 10° N 21:54:25 49° NNE 21:54:25 49° NNE
USA 229 DEB 3.7 22:05:51 72° NE 22:05:51 72° NE 22:11:56 10° NE
USA 229 3.7 22:05:59 72° NE 22:05:59 72° NE 22:12:01 10° NE
SL-16 R/B 3.1 22:10:36 48° E 22:11:19 50° ENE 22:17:20 10° N
Cosmos 2263 Rocket 3.1 22:17:00 41° ENE 22:17:00 41° ENE 22:21:10 10° NE
NOSS 3-1 (A) 3.7 22:17:45 57° NE 22:17:45 57° NE 22:22:43 10° NE
Cosmos 1655 Rocket 4.1 22:11:26 10° N 22:17:21 68° ENE 22:17:21 68° ENE
SL-16 R/B 3.6 22:14:47 10° NW 22:17:41 29° NW 22:17:41 29° NW
Cosmos 2279 Rocket 4.2 22:24:45 61° NW 22:24:45 61° NW 22:30:10 10° N
ADEOS II 3.9 22:21:27 10° NE 22:25:30 22° E 22:25:41 22° E
Cosmos 1898 Rocket 4.3 22:27:31 47° N 22:27:31 47° N 22:31:21 10° NNE
Cosmos 2297 Rocket 4.1 22:32:12 18° WNW 22:32:51 18° NW 22:36:41 10° N
GEOS 3 Rocket 4.1 22:36:55 10° NE 22:41:34 57° E 22:41:34 57° E
SJ 16-02 3.5 22:47:38 19° NW 22:47:38 19° NW 22:49:39 10° N
IRAS Rocket 4.3 22:59:19 65° NW 22:59:19 65° NW 23:04:14 10° NNW
AQUA 4.2 22:55:49 10° NNE 22:59:51 62° NE 22:59:51 62° NE
Cosmos 1603 3.7 22:55:21 10° NNW 23:00:43 78° NW 23:00:43 78° NW
Cosmos 1809 Rocket 4.5 22:55:37 10° N 23:01:44 75° E 23:02:44 62° SE
ATLAS CENTAUR R/B 2.7 23:04:06 36° NE 23:04:06 36° NE 23:06:34 10° NE
CZ-2D R/B 2.3 22:59:54 10° N 23:05:05 66° NW 23:05:05 66° NW
Cosmos 2285 Rocket 4.1 23:09:27 56° SSE 23:10:30 65° ESE 23:16:44 10° NNE
IRS-1D 3.6 23:06:26 10° NNE 23:11:34 68° ESE 23:11:47 67° ESE
Cosmos 1626 Rocket 4.3 23:11:57 10° N 23:15:02 46° NNW 23:15:02 46° NNW
Cosmos 2266 Rocket 4.1 23:11:24 10° NNW 23:17:25 54° W 23:17:25 54° W
Cosmos 1943 3.0 23:13:01 10° NNW 23:18:27 74° W 23:18:27 74° W
Meteor 2-21 4.3 23:13:46 10° N 23:19:52 89° E 23:21:09 59° S
Cosmos 2084 3.9 23:23:52 59° N 23:23:52 59° N 23:27:42 10° NNE
NPP 3.9 23:21:10 10° N 23:26:23 51° WNW 23:26:29 51° WNW
Cosmos 1932 4.3 23:21:00 10° NW 23:27:30 81° WSW 23:30:41 32° SSE
Cosmos 1703 3.9 23:27:40 10° N 23:31:33 52° E 23:31:37 52° E
SL-08 R/B 4.0 23:32:10 26° SE 23:34:46 55° ENE 23:39:36 10° N
Resurs 1-4 Rocket 2.9 23:30:44 10° N 23:35:28 35° WNW 23:35:32 35° WNW
Cosmos 1758 Rocket 3.9 23:35:20 10° N 23:39:38 62° E 23:40:31 49° SE
IDEFIX/ARIANE 42P 3.7 23:36:04 10° NNE 23:40:54 37° E 23:43:45 21° SSE
COBE Rocket 4.2 23:41:55 46° WNW 23:41:55 46° WNW 23:45:41 10° NNW
Cosmos 1048 Rocket 3.9 23:36:04 10° NNW 23:41:16 90° E 23:42:59 44° SSE
Cosmos 1953 3.3 23:43:41 37° NW 23:43:41 37° NW 23:46:40 10° N
Cosmos 2298 Rocket 4.2 23:44:45 51° W 23:45:21 53° WNW 23:50:35 10° N
NOSS 2-2 (C) 4.3 23:47:08 33° ESE 23:47:08 33° ESE 23:50:28 10° NE
Cosmos 1328 3.9 23:44:05 10° N 23:48:06 70° E 23:48:33 63° SE
H-2A R/B 4.3 23:45:35 10° ESE 23:48:47 23° ENE 23:52:00 10° NNE
Atlas Centaur 2 3.4 23:51:56 29° S 23:51:56 29° S 23:57:54 10° ESE
CZ-4B R/B 3.9 23:50:58 10° N 23:55:25 41° WNW 23:55:44 40° W
